Location: Unspecified
(0.0000°N, 0.0000°E)
Time: 21:29:14
(UTC+00:00)

DMSP 5D-2 F13 DEB - Pass Details

Date: 14 March 2026
Orbit: 780 x 797 km, 98.7° (Epoch: 11 April)

Event Time Altitude Azimuth Distance (km) Brightness Sun altitude
Rises 19:27:31 0° 177° (S) 3,267 ? -19.6°
Reaches altitude 10° 19:29:53 10° 181° (S) 2,338 ? -20.2°
Maximum altitude 19:34:53 53° 257° (WSW) 961 ? -21.4°
Drops below altitude 10° 19:39:54 10° 334° (NNW) 2,340 ? -22.7°
Sets 19:42:17 0° 338° (NNW) 3,268 ? -23.3°
